Location: Norton
(51.3000°N, 0.8167°E)
Time: 18:02:33
(UTC+00:00)

SL-08 RB Rocket - Pass Details

Date: 03 March 2021
Orbit: 647 x 683 km, 97.8° (Epoch: 12 April)

Event Time Altitude Azimuth Distance (km) Brightness Sun altitude
Rises 18:51:30 0° 161° (SSE) 2,969 6.8 -11.8°
Reaches altitude 10° 18:53:42 10° 160° (SSE) 2,067 6.0 -12.1°
Maximum altitude 18:58:13 80° 74° (ENE) 679 3.6 -12.8°
Drops below altitude 10° 19:02:49 10° 348° (NNW) 2,106 6.5 -13.5°
Sets 19:05:04 0° 347° (NNW) 3,030 7.4 -13.9°
